Terminal Aerodrome Forecast
Issued by NWS Newport/Morehead City, NC

Home | Current Version | Previous Version | Graphics & Text | Print | Product List | Glossary On
Versions: 1 2 3 4 5 6 7 8 9 10 11 12 13 14 15 16 17 18 19 20
000
FTUS42 KMHX 151133
TAFEWN
TAF
KEWN 151133Z 1512/1612 00000KT 3SM BR FEW012
     FM151400 00000KT P6SM SCT080
     FM152000 VRB04KT P6SM -SHRA VCTS BKN035CB
     FM160300 00000KT P6SM BKN090
     FM161000 00000KT 3SM BR BKN003=

USA.gov is the U.S. government's official web portal to all federal, state and local government web resources and services.